This is the latest recevied weather packets stored in our database for station/object N2XP-3. If no packets are shown the sender has not sent any weather packets the latest 10 day(s).
| Time | Temp. | Humidity | Pressure | Rain* | Wind** | Luminosity | Snow |
|---|---|---|---|---|---|---|---|
| 1777571159 | 14.44° C | 76% | 1004.8 hPa | 0 mm | 0.45 m/s, 153° | - | - |
| 1777570151 | 15° C | 74% | 1004.7 hPa | 0 mm | 0.89 m/s, 69° | - | - |
| 1777569950 | 15° C | 74% | 1004.5 hPa | 0 mm | 0.89 m/s, 309° | - | - |
| 1777569916 | 15° C | 74% | 1004.5 hPa | 0 mm | 0.89 m/s, 309° | - | - |
| 1777569852 | 15° C | 74% | 1004.5 hPa | 0 mm | 0.89 m/s, 309° | - | - |
| 1777569548 | 15.56° C | 74% | 1004.5 hPa | 0 mm | 0.89 m/s, 318° | - | - |
| 1777569314 | 15.56° C | 75% | 1004.5 hPa | 0 mm | 0.45 m/s, 273° | - | - |
| 1777569247 | 15.56° C | 75% | 1004.5 hPa | 0 mm | 0.45 m/s, 273° | - | - |
| 1777569033 | 15.56° C | 75% | 1004.5 hPa | 0 mm | 0.45 m/s, 159° | - | - |
| 1777568752 | 15° C | 76% | 1004.4 hPa | 0 mm | 0.89 m/s, 203° | - | - |
| 1777568159 | 14.44° C | 77% | 1004.4 hPa | 0 mm | 0.45 m/s, 89° | - | - |
| 1777567134 | 15° C | 76% | 1004.5 hPa | 0 mm | 2.24 m/s, 52° | - | - |
| 1777566822 | 15° C | 75% | 1004.5 hPa | 0 mm | 0.89 m/s, 77° | - | - |
| 1777566642 | 15.56° C | 76% | 1004.7 hPa | 0 mm | 0.45 m/s, 62° | - | - |
| 1777565964 | 15.56° C | 75% | 1004.8 hPa | 0 mm | 1.34 m/s, 311° | - | - |
| 1777565911 | 15.56° C | 75% | 1004.8 hPa | 0 mm | 1.34 m/s, 311° | - | - |
| 1777565002 | 15° C | 80% | 1004.9 hPa | 0 mm | 0.45 m/s, 77° | - | - |
| 1777564438 | 15° C | 81% | 1005.1 hPa | 0 mm | 1.79 m/s, 222° | - | - |
| 1777564171 | 15° C | 83% | 1005.1 hPa | 0 mm | 0 m/s | - | - |
| 1777563280 | 13.33° C | 87% | 1005.2 hPa | 0 mm | 1.34 m/s, 145° | - | - |
| 1777562986 | 13.33° C | 88% | 1005.2 hPa | 0 mm | 0.89 m/s, 249° | - | - |
| 1777562891 | 13.33° C | 88% | 1005.2 hPa | 0 mm | 0.89 m/s, 249° | - | - |
| 1777562646 | 13.33° C | 87% | 1005.2 hPa | 0 mm | 1.34 m/s, 207° | - | - |
| 1777562593 | 13.33° C | 87% | 1005.2 hPa | 0 mm | 1.34 m/s, 207° | - | - |
| 1777561672 | 13.89° C | 92% | 1005.2 hPa | 0 mm | 0.45 m/s, 56° | - | - |
* Rain latest hour (hover to see other rain measurements)
** Current wind speed in m/s (hover to see current wind gust speed)